Notices

What's New in latest Release from April 7th, 2021:

- Updated Glossary, including Speed of Maximum Gust, and Total Hourly Precipitation

- Updated national and regional climate services offices contacts and prices information

- Addition of station inventory lists for 1981-2010, 1971-2000, and 1961-1990 Normals.

If you haven't already, please take our survey and provide feedback about our website: https://eccc.sondage-survey.ca/f/LanguageSelection.aspx?s=442ca660-fcf1-47c0-95a9-59707d6fd709

Hourly Data Report for January 26, 2021

EDMUNDSTON
NEW BRUNSWICK
Current Station Operator: ECCC - MSC

47°25'00.000" N
68°19'28.040" W
154.20 m
8101303
71590
ERM

Download Data

Hourly Data (January 2021)
Hourly Data Report for January 26, 2021
TIME
LST
Temp Definition
°C
Dew Point Definition
°C
Rel Hum Definition
%
Precip. Amount Definition
mm

Wind Dir Definition
10's deg

Wind Spd Definition
km/h
Visibility Definition
km
Stn Press Definition
kPa
Hmdx Definition


Wind Chill Definition


Weather Definition


00:00 -7.8 -10.4 81 0.0   0   99.53     LegendNANA
01:00 -7.5 -10.1 82 0.0 33 5   99.55   -10 LegendNANA
02:00 -6.7 -9.6 79 0.0 32 7   99.62   -10 LegendNANA
03:00 -6.8 -9.5 81 0.0 33 6   99.63   -10 LegendNANA
04:00 -7.5 -9.7 84 0.0 32 5   99.67   -10 LegendNANA
05:00 -7.4 -9.4 85 0.0 30 3   99.74   -9 LegendNANA
06:00 -6.9 -9.4 82 0.0 33 8   99.78   -11 LegendNANA
07:00 -6.9 -9.3 83 0.0 32 5   99.80   -9 LegendNANA
08:00 -6.8 -9.1 84 0.0 32 5   99.88   -9 LegendNANA
09:00 -6.7 -9.0 84 0.0 34 5   99.92   -9 LegendNANA
10:00 -6.1 -8.6 82 0.0 32 6   99.95   -9 LegendNANA
11:00 -5.2 -8.2 79 0.0 30 9   99.95   -9 LegendNANA
12:00 -4.2 -7.7 76 0.0 30 7   99.91   -7 LegendNANA
13:00 -3.6 -6.9 77 0.0 33 7   99.85   -7 LegendNANA
14:00 -2.9 -6.9 74 0.0 30 7   99.86   -6 LegendNANA
15:00 -2.4 -6.4 74 0.0 31 4   99.80   -4 LegendNANA
16:00 -2.4 -6.3 75 0.0 30 6   99.78   -5 LegendNANA
17:00 -2.4 -6.1 76 0.0 30 4   99.76   -4 LegendNANA
18:00 -2.7 -6.1 78 0.0 25 4   99.80   -4 LegendNANA
19:00 -3.0 -6.1 79 0.0 29 4   99.82   -5 LegendNANA
20:00 -3.2 -6.0 81 0.0   0   99.87     LegendNANA
21:00 -3.9 -6.1 85 0.0 27 3   99.84   -5 LegendNANA
22:00 -4.0 -6.1 85 0.0 28 3   99.81   -5 LegendNANA
23:00 -3.8 -6.0 85 0.0 27 1   99.84   -4 LegendNANA

Notes on Data Quality.

Legend

  • E = Estimated
  • M = Missing
  • NA = Not Available*
  • [empty] = Indicates an unobserved value
Date modified: